Flag for U.S.A. Weather past 2 weeks in Kennebunk, Maine, U.S.A.

Now
7 °F

Passing clouds.


Feels Like: 7 °F
Forecast: 3 / 20 °F
Wind: No wind

Location: Sanford Municipal

Current Time: Feb 27, 2015 at 2:49:15 AM

Latest Report: Feb 27, 2015 at 2:15 AM


Visibility: 10 mi

Pressure: 30.13 "Hg

Humidity: 66%

Dew point: -2 °F

Location of KennebunkLocation

Historic Weather in Kennebunk — Graph

°F

Kennebunk temperature yesterday

Maximum temperature yesterday: 19 °F (at 12:15 AM)
Minimum temperature yesterday: 9 °F (at 8:55 PM)
Average temperature yesterday: 15 °F

Past Weeks' High & Low Weather Summary

 TemperatureHumidityPressure
High37 °F (Feb 22, 3:15 PM)100% (Feb 18, 8:15 PM)30.50 "Hg (Feb 18, 8:15 PM)
Low-20 °F (Feb 24, 5:35 AM)25% (Feb 24, 11:35 AM)29.38 "Hg (Feb 15, 5:15 AM)
Average13 °F56%29.91 "Hg
* Reported Feb 12 1:35 AM — Feb 27 1:35 AM, Kennebunk, Weather by CustomWeather, © 2015

Note: Actual official high and low records may vary slightly from our data, if they occured in-between our weather recording intervals... More about our weather records

Advertising

Kennebunk weather history for previous 24 hours

 ConditionsComfort  
Time TempWeatherWind HumidityBarometerVisibility
1:35 AM
Fri, Feb 27
10 °FOvercast.No wind56%30.13 "Hg10 mi
1:15 AM10 °FOvercast.No wind67%30.12 "Hg10 mi
12:55 AM10 °FOvercast.No wind61%30.11 "Hg10 mi
12:35 AM10 °FPassing clouds.No wind61%30.11 "Hg10 mi
12:15 AM12 °FPassing clouds.No wind62%30.10 "Hg10 mi
11:55 PM
Thu, Feb 26
12 °FOvercast.No wind52%30.10 "Hg10 mi
11:35 PM12 °FMostly cloudy.No wind62%30.09 "Hg10 mi
11:15 PM12 °FMostly cloudy.No wind62%30.10 "Hg10 mi
10:35 PM10 °FClear.No wind61%30.09 "Hg10 mi
10:15 PM10 °FClear.No wind67%30.08 "Hg10 mi
9:55 PM10 °FPassing clouds.No wind47%30.08 "Hg10 mi
9:35 PM10 °FPassing clouds.No wind61%30.07 "Hg10 mi
9:15 PM9 °FClear.No wind66%30.06 "Hg10 mi
8:55 PM9 °FPassing clouds.No wind51%30.05 "Hg10 mi
8:35 PM10 °FPassing clouds.No wind56%30.05 "Hg10 mi
8:15 PM12 °FPassing clouds.No wind52%30.04 "Hg10 mi
7:55 PM16 °FClear.3 mph37%30.03 "Hg10 mi
7:35 PM18 °FClear.No wind45%30.03 "Hg10 mi
7:15 PM18 °FPassing clouds.3 mph45%30.02 "Hg10 mi
6:55 PM18 °FPassing clouds.6 mph41%30.01 "Hg10 mi
6:35 PM18 °FPassing clouds.7 mph49%30.01 "Hg10 mi
6:15 PM18 °FPassing clouds.7 mph45%30.00 "Hg10 mi
5:55 PM18 °FPassing clouds.6 mph45%30.01 "Hg10 mi
5:35 PM18 °FPassing clouds.6 mph45%30.00 "Hg10 mi
5:15 PM18 °FBroken clouds.7 mph45%30.00 "Hg10 mi
4:55 PM18 °FPartly sunny.7 mph41%29.99 "Hg10 mi
4:35 PM18 °FPartly sunny.7 mph45%29.98 "Hg10 mi
4:15 PM19 °FSunny.7 mph42%29.98 "Hg10 mi
3:55 PM19 °FSunny.6 mph45%29.98 "Hg10 mi
3:35 PM19 °FPassing clouds.5 mph42%29.98 "Hg10 mi
3:15 PM19 °FSunny.7 mph38%29.98 "Hg10 mi
2:55 PM19 °FSunny.6 mph42%29.97 "Hg10 mi
2:35 PM19 °FSunny.6 mph42%29.98 "Hg10 mi
2:15 PM19 °FSunny.3 mph42%29.98 "Hg10 mi
1:55 PM19 °FSunny.No wind38%29.99 "Hg10 mi
1:35 PM18 °FSunny.No wind41%30.00 "Hg10 mi
1:15 PM18 °FSunny.No wind41%30.01 "Hg10 mi
12:55 PM18 °FSunny.No wind41%30.03 "Hg10 mi
12:35 PM18 °FSunny.5 mph45%30.04 "Hg10 mi
12:15 PM18 °FSunny.No wind41%30.03 "Hg10 mi
11:55 AM16 °FSunny.3 mph48%30.04 "Hg10 mi
11:35 AM16 °FSunny.7 mph48%30.06 "Hg10 mi
11:15 AM16 °FSunny.6 mph45%30.07 "Hg10 mi
10:55 AM16 °FSunny.5 mph48%30.08 "Hg10 mi
10:35 AM16 °FSunny.5 mph48%30.08 "Hg10 mi
10:15 AM14 °FSunny.5 mph48%30.08 "Hg10 mi
9:55 AM14 °FSunny.3 mph52%30.08 "Hg10 mi
9:35 AM12 °FSunny.6 mph57%30.08 "Hg10 mi
9:15 AM12 °FSunny.7 mph52%30.09 "Hg10 mi
8:55 AM12 °FSunny.6 mph57%30.09 "Hg10 mi
8:35 AM12 °FSunny.5 mph62%30.10 "Hg10 mi
8:15 AM12 °FSunny.8 mph52%30.10 "Hg10 mi
7:55 AM12 °FSunny.6 mph57%30.09 "Hg10 mi
7:35 AM12 °FSunny.7 mph57%30.08 "Hg10 mi
7:15 AM12 °FSunny.7 mph52%30.06 "Hg10 mi
6:55 AM10 °FSunny.7 mph67%30.06 "Hg10 mi
6:35 AM12 °FScattered clouds.No wind57%30.05 "Hg10 mi
6:15 AM12 °FPassing clouds.5 mph52%30.04 "Hg10 mi
5:55 AM12 °FClear.5 mph62%30.05 "Hg10 mi
5:35 AM12 °FClear.3 mph57%30.05 "Hg10 mi
5:15 AM14 °FClear.3 mph48%30.05 "Hg10 mi
4:55 AM14 °FClear.6 mph52%30.03 "Hg10 mi
4:35 AM14 °FClear.8 mph48%30.03 "Hg10 mi
4:15 AM14 °FClear.7 mph48%30.03 "Hg10 mi
3:55 AM14 °FClear.8 mph52%30.02 "Hg10 mi
3:35 AM16 °FClear.7 mph48%30.01 "Hg10 mi
3:15 AM16 °FClear.5 mph45%30.02 "Hg10 mi
2:55 AM16 °FClear.7 mph53%30.01 "Hg10 mi
2:35 AM16 °FClear.9 mph48%30.01 "Hg10 mi
2:15 AM16 °FClear.10 mph45%30.00 "Hg10 mi
Weather by CustomWeather, © 2015

See weather overviewHow to use our weather pages